Regional Weather Roundup
Issued by NWS

Home | Current Version | Previous Version | Text Only | Print | Product List | Glossary On
Versions: 1 2 3 4 5 6 7 8 9 10 11 12 13 14 15 16 17 18 19 20 21 22 23 24 25 26 27 28 29 30 31 32 33 34 35 36 37 38 39 40 41 42 43 44 45 46 47 48 49
000
ASUS43 KDMX 292207
RWRIA

WEATHER ROUNDUP FOR IOWA
NATIONAL WEATHER SERVICE DES MOINES IA
500 PM CDT WED JUL 29 2015

NOTE: "FAIR" INDICATES FEW OR NO CLOUDS BELOW 12,000 FEET WITH NO
SIGNIFICANT WEATHER AND/OR OBSTRUCTIONS TO VISIBILITY.

* - THESE STATIONS ARE NOT NWS STATIONS...THUS NOT UNDER NWS
QUALITY CONTROL.  THEY ALSO DO NOT REPORT WEATHER SUCH
AS PRECIPITATION OR FOG.

IAZ001>003-012>014-020>022-031>034-043>046-292300-
   NORTHWEST IOWA

CITY           SKY/WX    TMP DP  RH WIND       PRES   REMARKS
CARROLL *      SUNNY     81  57  44 NW9G16    30.12S HX  81
CHEROKEE *     SUNNY     81  55  41 W12G17    30.11S HX  81
DENISON *      SUNNY     81  61  50 W10       30.12S HAZE    HX  81
LE MARS *      SUNNY     82  57  42 W8G16     30.12F HX  82
ORANGE CITY *  SUNNY     81  54  39 W14       30.11S HX  80
SHELDON *      SUNNY     81  57  44 W13G21    30.09S HX  81
SIOUX CITY     SUNNY     84  57  39 W8        30.11F HX  83
SPENCER        SUNNY     83  54  36 W23G31    30.09F HX  82
STORM LAKE *   SUNNY     79  57  47 W13       30.13S HX  80
$$

IAZ055>058-069>071-079>083-090>094-292300-
   SOUTHWEST IOWA

CITY           SKY/WX    TMP DP  RH WIND       PRES   REMARKS
ATLANTIC *     MOSUNNY   81  57  44 NW8       30.14S HX  81
AUDUBON *      SUNNY     82  55  39 NW8       30.15S HX  82
CLARINDA *     PTSUNNY   82  63  51 N6        30.16S HX  83
COUNCIL BLFS * MOSUNNY   79  61  53 NW5       30.16S HX  80
CRESTON *      MOSUNNY   81  57  44 NW9       30.15S HX  81
HARLAN  *      SUNNY     81  59  47 NW8       30.18S HX  81
LAMONI           N/A    N/A N/A N/A MISG      30.14S
RED OAK *      MOSUNNY   81  55  41 NW7       30.15S HX  80
SHENANDOAH *   PTSUNNY   82  59  44 VRB5      30.16R HX  82
$$

IAZ047>049-059>061-072>074-084-292300-
   CENTRAL IOWA

CITY           SKY/WX    TMP DP  RH WIND       PRES   REMARKS
AMES           SUNNY     81  57  43 NW15      30.09F HX  81
ANKENY *       SUNNY     82  55  39 W13       30.10S HX  82
CHARITON *     MOSUNNY   81  61  50 NW6       30.12F HX  81
DES MOINES     MOSUNNY   85  54  34 W8        30.10F HX  83
GRINNELL*      SUNNY     81  55  41 W12       30.10F HX  80
KNOXVILLE *    MOSUNNY   81  59  47 NW8       30.10S HX  81
MARSHALLTOWN   SUNNY     81  59  47 W13       30.08F HX  81
PELLA *        MOSUNNY   82  64  54 NW7       30.11S HX  83
PERRY *          N/A     79  59  50 W10       30.11S HX  80
$$

IAZ004>006-015-016-023>025-035-036-292300-
   NORTH CENTRAL IOWA

CITY           SKY/WX    TMP DP  RH WIND       PRES   REMARKS
ALGONA *       SUNNY     81  55  41 W14G24    30.08S HX  80
CLARION *      SUNNY     81  57  44 W17G23    30.08S HX  81
ESTHERVILLE    SUNNY     80  56  43 W18G28    30.07F HX  80
FORT DODGE *   SUNNY     81  57  44 W10G18    30.10F HX  81
MASON CITY     SUNNY     82  59  45 W21       30.06F HX  82
FOREST CITY *    N/A     79  54  41 W14G24    30.06S
IOWA FALLS *     N/A     82  55  39 W17G23    30.09F HX  82
$$

IAZ007>011-017>019-026>030-037>042-050>054-066-292300-
   NORTHEAST IOWA

CITY           SKY/WX    TMP DP  RH WIND       PRES   REMARKS
CEDAR RAPIDS   SUNNY     81  61  50 W15       30.06F HX  82
CHARLES CITY * SUNNY     81  57  44 W13G22    30.05S HX  81
CLINTON *      SUNNY     81  61  50 W15       30.06F HX  81
DECORAH *      SUNNY     81  54  39 W8G20     30.01S HX  80
DUBUQUE        SUNNY     82  55  39 NW16G22   30.04F HX  81
MONTICELLO *   SUNNY     82  55  39 W14G21    30.04F HX  82
OELWEIN *      SUNNY     81  57  44 W10G23    30.05F HX  81
WATERLOO       SUNNY     82  56  40 W14G22    30.04F HX  82
$$

IAZ064-065-067-068-078-292300-
   EAST CENTRAL IOWA

CITY           SKY/WX    TMP DP  RH WIND       PRES   REMARKS
DAVENPORT      SUNNY     82  59  45 W10       30.05F HX  82
IOWA CITY      SUNNY     84  58  40 W13       30.07F HX  83
MT. PLEASANT * SUNNY     85  49  28 NW7       30.08F HX  83
MUSCATINE *    SUNNY     84  57  39 W13       30.06F HX  83
QUAD CITIES    SUNNY     84  56  38 W15       30.04F HX  83
$$

IAZ062-063-075>077-085>089-095>099-292300-
   SOUTHEAST IOWA

CITY           SKY/WX    TMP DP  RH WIND       PRES   REMARKS
BURLINGTON     SUNNY     83  57  41 NW8G17    30.08F HX  82
FAIRFIELD *    SUNNY     81  57  44 NW10G17   30.09F HX  81
FORT MADISON * SUNNY     81  59  47 NW8       30.10S HX  81
KEOKUK *       SUNNY     84  57  39 NW10      30.08S HX  83
OSKALOOSA *      N/A     81  61  50 NW8       30.10F HX  82
CENTERVILLE *    N/A     81  57  44 NW9       30.13F HX  81
OTTUMWA        SUNNY     82  62  50 NW10      30.09F HX  83
WASHINGTON *   SUNNY     82  61  47 NW12      30.09F HX  83
$$

ABBREVIATIONS USED IN REMARKS
   TC - TEMPERATURES IN CELSIUS
  WCI - WIND CHILL INDEX
   HX - HEAT INDEX
  VSB - VISIBILITY
$$



USA.gov is the U.S. government's official web portal to all federal, state and local government web resources and services.